Retour au catalogue

ONEWEB-0473

ActifCommunicationsPO
NORAD 51653·PAYLOAD·🇬🇧 United Kingdom

Lancé Feb 10, 2022 depuis Guiana Space Centre

Loading…

Prochains Passages (prochaines 24 heures)

TLE

FraisSource: CelesTrak SupGP

Époque: Sep 14, 2026, 22:06 UTC

1 51653C 22012AH  26257.92135833 -.00002421  00000+0 -69437-2 0  2571
2 51653  87.8892  18.4067 0001710 100.2816  10.1167 13.10371751    13

Suivez ONEWEB-0473 en temps réel avec AllMySat

Download on the App Store